Regional Weather Roundup
Issued by NWS Midland/Odessa, TX

Skip options and go directly to product.
Home | Oldest Version | Previous Version | Current Version | All | Graphics & Text | Save Text | Print | Product List | Glossary On

Skip product version selection by date and time.   
573
ASUS44 KMAF 011810
RWRMAF
MIDLAND AREA WEATHER ROUNDUP
NATIONAL WEATHER SERVICE MIDLAND TX
100 PM CDT WED OCT 01 2014

...IN SOUTHWEST TEXAS AND SOUTHEAST NEW MEXICO...

CITY           SKY/WX    TMP DP  RH WIND       PRES   REMARKS
ALPINE         FAIR      83  51  32 W9G17     30.04F
ANDREWS        FAIR      85  48  27 W8G16     29.87F
ARTESIA        NOT AVBL
BIG SPRING     FAIR      86  60  40 SW7       29.86F
CARLSBAD       SUNNY     81  50  33 SE6       29.88F
DRYDEN           N/A     88  65  46 CALM      29.83F
FORT STOCKTON  FAIR      88  50  27 W8        29.88F
GUAD PASS      SUNNY     73  42  32 W35G41    30.02F
HOBBS          SUNNY     77  48  36 SW8       29.91S
MARFA          FAIR      81  48  32 SW13G20   30.04F
MIDLAND AIRPK  FAIR      87  53  31 SW12      29.86F
MIDLAND INTL   FAIR      88  53  30 SW15      29.85F
ODESSA         FAIR      84  54  35 W12       29.87F
PECOS          FAIR      87  48  26 W8        29.86F
PRESIDIO       FAIR      87  50  28 W6        29.89F
SEMINOLE       FAIR      83  48  29 W13       29.88F
SNYDER         FAIR      83  67  59 SW12      29.83F
WINK           FAIR      86  48  26 W12       29.85F
$$
...OTHER STATIONS IN TEXAS...

CITY           SKY/WX    TMP DP  RH WIND       PRES   REMARKS
ABILENE          N/A     88  66  48 SW16      29.82F
AMARILLO       FAIR      77  44  30 VRB3      29.86F
AUSTIN         FAIR      88  70  55 S12       29.81F
BROWNSVILLE    PTSUNNY   89  82  79 SE12G17   29.81F HX 110
CORPUS CHRISTI FAIR      89  75  63 S10       29.81F
DALLAS FTW     FAIR      89  68  49 S17       29.80F
DEL RIO        FAIR      87  71  58 SE16      29.79F
EL PASO        SUNNY     80  35  19 W15       29.94F
HOUSTON INT    FAIR      90  73  57 VRB3      29.82F
LUBBOCK        FAIR      81  49  32 SW10      29.85F
SAN ANGELO     FAIR      90  66  45 S15G22    29.82F
SAN ANTONIO    FAIR      87  70  56 S10       29.83F
WACO           FAIR      87  69  54 S12       29.83F
WICHITA FALLS  NOT AVBL
$$
...OTHER LOCATIONS IN NEW MEXICO...

CITY           SKY/WX    TMP DP  RH WIND       PRES   REMARKS
ALAMAGORDO     SUNNY     77  37  24 SW8       29.95F
ALBUQUERQUE    MOSUNNY   68  35  29 SW9       29.99F
CANNON AFB     SUNNY     75  38  26 VRB3      29.91F
CLOVIS           N/A     75  39  27 CALM      29.93F
HOLLOMAN AFB   SUNNY     78  37  22 VRB6      29.93F
ROSWELL        SUNNY     76  45  33 VRB3      29.90F
RUIDOSO        SUNNY     66  32  28 CALM      30.08S
SANTA FE       SUNNY     66  32  28 SW12G18   30.01F
TRUTH OR CONSE SUNNY     73  34  23 VRB3      29.96F
TUCUMCARI      SUNNY     76  39  26 VRB7      29.88F
$$

USA.gov is the U.S. government's official web portal to all federal, state and local government web resources and services.